Content
SEND FEEDBACK

Daily
Averages
Monthly
Summary
Mexico

CANCUN, QUINTANA ROO


Home > North America > Mexico > Quintana Roo
Elevation: 9 meters     Latitude: 21 09N     Longitude: 086 49W

WEATHER
 
SELECT A DAY
Number of Records: 163,746;   Date Range: 1/1/95 - 7/30/14
 
SHARE

PRINT THIS DATA

[ ← Previous Day ]
WEATHER ALMANAC - 5 NOVEMBER, 2013
[ Next Day → ]
[ °F ]   °C
Weather ElementAverageHighLow
Temperature25.7 °C29 °C (10:49 am)23 °C (2:42 am)
Dewpoint22.7 °C23 °C (1:31 am)22 °C (1:51 am)
Humidity83.8 %100 % (11:46 pm)66 % (10:49 am)
Barometer1013.5 hPa1016.3 hPa (9:18 am)1011.9 hPa (3:44 pm)
Wind Speed10.3 km/h22.2 km/h (9:42 am)
Weather ElementAverage
Visibility10 km
Wind DirectionESE (105.2 °)

Weather ElementTotal
Precipitation---
Cooling Degree Days7.7 (Base 18.3)
Growing Degree Days16 (Base 10)
Averaged from 25 records on 5 November, 2013
WEATHER CONDITIONS BREAKOUT
WIND DIRECTION BREAKOUT
WEATHER BY HOUR - 5 NOVEMBER, 2013
[ °F ]   °C
Local TimeTemperatureDewpointHumidityBarometerVisibilityWind DirectionWind SpeedGust SpeedPrecipitationEventsConditions
1:31 AM24 °C23 °C94 %1013.2 hPa6.4 kmESE (120°)14.8 km/hRainRain
1:51 AM24 °C22 °C89 %1013.2 hPa6.4 kmSE (130°)14.8 km/hRainLight Rain
2:42 AM23 °C22 °C94 %1013.2 hPa8 kmCalmRainLight Rain
3:44 AM24 °C23 °C94 %1013.2 hPa9.7 kmENE (60°)9.3 km/hMostly Cloudy
4:47 AM24 °C22 °C89 %1013.2 hPa9.7 kmEast (90°)11.1 km/hScattered Clouds
5:45 AM25 °C23 °C89 %1013.5 hPa9.7 kmEast (90°)7.4 km/hMostly Cloudy
6:42 AM25 °C23 °C89 %1013.9 hPa9.7 kmEast (80°)14.8 km/hScattered Clouds
7:42 AM26 °C23 °C83 %1014.9 hPa9.7 kmEast (80°)7.4 km/hMostly Cloudy
8:46 AM28 °C23 °C74 %1015.2 hPa11.3 kmEast (80°)13 km/hMostly Cloudy
9:18 AM23 °C22 °C94 %1016.3 hPa1.6 kmENE (60°)18.5 km/hRain-ThunderstormHeavy Thunderstorms and Rain
9:42 AM28 °C23 °C74 %1015.2 hPa11.3 kmENE (60°)22.2 km/hMostly Cloudy
10:49 AM29 °C22 °C66 %1014.6 hPa11.3 kmEast (80°)20.4 km/hMostly Cloudy
11:45 AM29 °C23 °C70 %1014.2 hPa11.3 kmSE (140°)13 km/hMostly Cloudy
12:48 PM28 °C22 °C70 %1012.5 hPa11.3 kmENE (70°)18.5 km/hMostly Cloudy
1:40 PM28 °C22 °C70 %1012.2 hPa11.3 kmNE (50°)9.3 km/hMostly Cloudy
2:42 PM28 °C22 °C70 %1012.2 hPa11.3 kmENE (60°)11.1 km/hMostly Cloudy
3:44 PM28 °C23 °C74 %1011.9 hPa11.3 kmNE (40°)7.4 km/hMostly Cloudy
4:42 PM27 °C23 °C79 %1012.2 hPa11.3 kmNNE (20°)3.7 km/hMostly Cloudy
5:41 PM26 °C23 °C83 %1012.9 hPa11.3 kmNNE (20°)5.6 km/hMostly Cloudy
6:41 PM26 °C22 °C78 %1012.9 hPa11.3 kmNNE (20°)3.7 km/hMostly Cloudy
7:47 PM25 °C23 °C89 %1013.5 hPa11.3 kmNNW (330°)5.6 km/hMostly Cloudy
8:47 PM24 °C23 °C94 %1013.9 hPa11.3 kmNNW (330°)5.6 km/hMostly Cloudy
9:48 PM24 °C23 °C94 %1013.5 hPa11.3 kmCalmMostly Cloudy
10:47 PM24 °C23 °C94 %1013.2 hPa11.3 kmNW (310°)9.3 km/hMostly Cloudy
11:46 PM23 °C23 °C100 %1012.2 hPa11.3 kmNW (310°)9.3 km/hMostly Cloudy
Hourly data recorded from MMUN, located 0 kilometers away from Cancun, Quintana Roo







STORIES FROM OUR PARTNERS